| time (UTC) | temp F | wind direction | speed MPH | gust MPH | rain 1hr in | rain 24hr in | rain mn in | humidity % | barometer mb |
| 20260906233856 | 74 | 219 | 1.0 | 3.0 | 0.00 | 0.00 | 0.00 | 84 | 1014.1 |
| 20260906233355 | 74 | 217 | 2.0 | 3.0 | 0.00 | 0.00 | 0.00 | 84 | 1014.0 |
| 20260906232850 | 75 | 211 | 3.0 | 3.0 | 0.00 | 0.00 | 0.00 | 84 | 1013.9 |
| 20260906232349 | 75 | 193 | 1.0 | 2.0 | 0.00 | 0.00 | 0.00 | 84 | 1013.6 |
| 20260906231843 | 75 | 101 | 0.0 | 2.0 | 0.00 | 0.00 | 0.00 | 83 | 1013.6 |
| 20260906231339 | 75 | 208 | 3.0 | 3.0 | 0.00 | 0.00 | 0.00 | 83 | 1013.7 |
| 20260906230838 | 75 | 213 | 1.0 | 3.0 | 0.00 | 0.00 | 0.00 | 83 | 1013.7 |
| 20260906230334 | 75 | 210 | 0.0 | 4.0 | 0.00 | 0.00 | 0.00 | 82 | 1013.9 |
| 20260906225832 | 75 | 248 | 1.0 | 4.0 | 0.00 | 0.00 | 0.00 | 82 | 1013.9 |
| 20260906225327 | 75 | 163 | 0.0 | 3.0 | 0.00 | 0.00 | 0.00 | 81 | 1013.8 |
| 20260906224823 | 75 | 171 | 1.0 | 5.0 | 0.00 | 0.00 | 0.00 | 80 | 1013.7 |
| 20260906224314 | 75 | 118 | 1.0 | 4.0 | 0.00 | 0.00 | 0.00 | 80 | 1013.9 |
| 20260906223810 | 76 | 106 | 2.0 | 3.0 | 0.00 | 0.00 | 0.00 | 80 | 1014.1 |
| 20260906223306 | 76 | 187 | 2.0 | 4.0 | 0.00 | 0.00 | 0.00 | 81 | 1013.6 |
| 20260906222804 | 76 | 73 | 0.0 | 3.0 | 0.00 | 0.00 | 0.00 | 80 | 1013.6 |
| 20260906222305 | 76 | 155 | 1.0 | 4.0 | 0.00 | 0.00 | 0.00 | 80 | 1013.5 |
| 20260906221801 | 76 | 190 | 1.0 | 5.0 | 0.00 | 0.00 | 0.00 | 82 | 1013.5 |
| 20260906221255 | 76 | 185 | 1.0 | 6.0 | 0.00 | 0.00 | 0.00 | 81 | 1013.1 |
| 20260906220751 | 76 | 180 | 2.0 | 4.0 | 0.00 | 0.00 | 0.00 | 81 | 1013.3 |
| 20260906220246 | 76 | 174 | 2.0 | 4.0 | 0.00 | 0.00 | 0.00 | 81 | 1013.4 |
| 20260906215745 | 76 | 209 | 3.0 | 5.0 | 0.00 | 0.00 | 0.00 | 80 | 1013.5 |
| 20260906215244 | 76 | 182 | 2.0 | 7.0 | 0.00 | 0.00 | 0.00 | 80 | 1013.4 |
| 20260906214743 | 76 | 163 | 2.0 | 5.0 | 0.00 | 0.00 | 0.00 | 79 | 1013.5 |
| 20260906214238 | 77 | 159 | 2.0 | 3.0 | 0.00 | 0.00 | 0.00 | 78 | 1013.6 |
| 20260906213732 | 76 | 85 | 0.0 | 5.0 | 0.00 | 0.00 | 0.00 | 78 | 1013.6 |
| 20260906213231 | 77 | 134 | 4.0 | 6.0 | 0.00 | 0.00 | 0.00 | 78 | 1013.7 |
| 20260906212729 | 76 | 187 | 3.0 | 8.0 | 0.00 | 0.00 | 0.00 | 78 | 1013.9 |
| 20260906212225 | 76 | 172 | 2.0 | 6.0 | 0.00 | 0.00 | 0.00 | 78 | 1013.8 |
| 20260906211724 | 77 | 183 | 3.0 | 8.0 | 0.00 | 0.00 | 0.00 | 77 | 1013.8 |
| 20260906211215 | 77 | 191 | 2.0 | 7.0 | 0.00 | 0.00 | 0.00 | 78 | 1013.9 |
| 20260906210715 | 77 | 205 | 5.0 | 9.0 | 0.00 | 0.00 | 0.00 | 77 | 1013.8 |
| 20260906210215 | 77 | 188 | 3.0 | 8.0 | 0.00 | 0.00 | 0.00 | 77 | 1013.8 |
| 20260906205705 | 77 | 211 | 5.0 | 6.0 | 0.00 | 0.00 | 0.00 | 76 | 1014.0 |
| 20260906205201 | 77 | 215 | 3.0 | 9.0 | 0.00 | 0.00 | 0.00 | 78 | 1014.1 |
| 20260906204700 | 77 | 185 | 2.0 | 7.0 | 0.00 | 0.00 | 0.00 | 76 | 1014.1 |
| 20260906204155 | 78 | 194 | 3.0 | 4.0 | 0.00 | 0.00 | 0.00 | 77 | 1014.3 |
| 20260906203655 | 77 | 187 | 1.0 | 4.0 | 0.00 | 0.00 | 0.00 | 77 | 1014.2 |
| 20260906203150 | 77 | 217 | 7.0 | 8.0 | 0.00 | 0.00 | 0.00 | 76 | 1014.3 |
| 20260906202647 | 77 | 199 | 5.0 | 7.0 | 0.00 | 0.00 | 0.00 | 77 | 1014.3 |
| 20260906202146 | 78 | 200 | 5.0 | 7.0 | 0.00 | 0.00 | 0.00 | 77 | 1014.2 |
| 20260906201641 | 77 | 182 | 3.0 | 7.0 | 0.00 | 0.00 | 0.00 | 77 | 1014.2 |
| 20260906201139 | 77 | 164 | 3.0 | 8.0 | 0.00 | 0.00 | 0.00 | 77 | 1014.3 |
| 20260906200636 | 78 | 166 | 2.0 | 6.0 | 0.00 | 0.00 | 0.00 | 77 | 1014.6 |
| 20260906200133 | 77 | 164 | 2.0 | 5.0 | 0.00 | 0.00 | 0.00 | 77 | 1014.8 |
| 20260906195627 | 77 | 213 | 0.0 | 7.0 | 0.00 | 0.00 | 0.00 | 77 | 1014.6 |
| 20260906195124 | 78 | 190 | 3.0 | 7.0 | 0.00 | 0.00 | 0.00 | 76 | 1014.8 |
| 20260906194620 | 77 | 211 | 2.0 | 6.0 | 0.00 | 0.00 | 0.00 | 77 | 1014.8 |
| 20260906194114 | 78 | 133 | 2.0 | 5.0 | 0.00 | 0.00 | 0.00 | 75 | 1014.8 |
| 20260906193609 | 78 | 202 | 3.0 | 6.0 | 0.00 | 0.00 | 0.00 | 76 | 1014.6 |
| 20260906193104 | 77 | 192 | 4.0 | 10.0 | 0.00 | 0.00 | 0.00 | 75 | 1015.0 |
| 20260906192600 | 77 | 200 | 6.0 | 7.0 | 0.00 | 0.00 | 0.00 | 76 | 1014.8 |
| 20260906192059 | 77 | 142 | 2.0 | 11.0 | 0.00 | 0.00 | 0.00 | 75 | 1014.7 |
| 20260906191554 | 78 | 211 | 2.0 | 5.0 | 0.00 | 0.00 | 0.00 | 75 | 1014.7 |
| 20260906191053 | 78 | 189 | 3.0 | 6.0 | 0.00 | 0.00 | 0.00 | 75 | 1014.8 |
| 20260906190553 | 78 | 106 | 3.0 | 5.0 | 0.00 | 0.00 | 0.00 | 74 | 1014.6 |
| 20260906190048 | 77 | 137 | 3.0 | 5.0 | 0.00 | 0.00 | 0.00 | 75 | 1014.8 |
| 20260906185546 | 77 | 158 | 5.0 | 7.0 | 0.00 | 0.00 | 0.00 | 74 | 1014.8 |
| 20260906185046 | 78 | 116 | 3.0 | 5.0 | 0.00 | 0.00 | 0.00 | 74 | 1014.8 |
| 20260906184541 | 77 | 191 | 3.0 | 7.0 | 0.00 | 0.00 | 0.00 | 74 | 1014.8 |
| 20260906184036 | 77 | 180 | 3.0 | 12.0 | 0.00 | 0.00 | 0.00 | 73 | 1014.8 |
| 20260906183532 | 78 | 175 | 3.0 | 6.0 | 0.00 | 0.00 | 0.00 | 72 | 1014.6 |
| 20260906183028 | 78 | 212 | 1.0 | 5.0 | 0.00 | 0.00 | 0.00 | 73 | 1014.7 |
| 20260906182523 | 77 | 147 | 3.0 | 8.0 | 0.00 | 0.00 | 0.00 | 73 | 1015.0 |
| 20260906182019 | 78 | 165 | 1.0 | 4.0 | 0.00 | 0.00 | 0.00 | 73 | 1014.9 |
| 20260906181514 | 78 | 219 | 4.0 | 11.0 | 0.00 | 0.00 | 0.00 | 71 | 1015.1 |
| 20260906181010 | 78 | 138 | 2.0 | 6.0 | 0.00 | 0.00 | 0.00 | 72 | 1015.1 |
| 20260906180505 | 78 | 160 | 3.0 | 5.0 | 0.00 | 0.00 | 0.00 | 71 | 1014.9 |
| 20260906180003 | 77 | 208 | 5.0 | 10.0 | 0.00 | 0.00 | 0.00 | 72 | 1015.1 |
| 20260906175457 | 78 | 136 | 3.0 | 5.0 | 0.00 | 0.00 | 0.00 | 72 | 1015.3 |
| 20260906174955 | 78 | 171 | 2.0 | 7.0 | 0.00 | 0.00 | 0.00 | 72 | 1015.4 |
| 20260906174449 | 78 | 215 | 6.0 | 7.0 | 0.00 | 0.00 | 0.00 | 72 | 1015.2 |
| 20260906173944 | 79 | 209 | 3.0 | 6.0 | 0.00 | 0.00 | 0.00 | 71 | 1015.4 |
| 20260906173439 | 79 | 232 | 4.0 | 7.0 | 0.00 | 0.00 | 0.00 | 71 | 1015.5 |
| 20260906172938 | 78 | 170 | 3.0 | 6.0 | 0.00 | 0.00 | 0.00 | 74 | 1015.4 |
| 20260906172430 | 77 | 167 | 2.0 | 6.0 | 0.00 | 0.00 | 0.00 | 74 | 1015.4 |
| 20260906171925 | 77 | 195 | 3.0 | 8.0 | 0.00 | 0.00 | 0.00 | 73 | 1015.7 |
| 20260906171419 | 76 | 203 | 6.0 | 11.0 | 0.00 | 0.00 | 0.00 | 74 | 1015.4 |
| 20260906170915 | 77 | 201 | 4.0 | 7.0 | 0.00 | 0.00 | 0.00 | 74 | 1015.4 |
| 20260906170411 | 75 | 221 | 4.0 | 9.0 | 0.00 | 0.00 | 0.00 | 75 | 1015.6 |
| 20260906165908 | 77 | 205 | 4.0 | 8.0 | 0.00 | 0.00 | 0.00 | 74 | 1015.6 |
| 20260906165407 | 76 | 125 | 2.0 | 6.0 | 0.00 | 0.00 | 0.00 | 75 | 1015.7 |
| 20260906164902 | 75 | 158 | 1.0 | 7.0 | 0.00 | 0.00 | 0.00 | 76 | 1015.5 |
| 20260906164400 | 75 | 241 | 1.0 | 10.0 | 0.00 | 0.00 | 0.00 | 76 | 1015.6 |
| 20260906163856 | 75 | 201 | 2.0 | 7.0 | 0.00 | 0.00 | 0.00 | 77 | 1015.7 |
| 20260906163347 | 74 | 201 | 3.0 | 9.0 | 0.00 | 0.00 | 0.00 | 79 | 1015.5 |
| 20260906162845 | 74 | 206 | 5.0 | 8.0 | 0.00 | 0.00 | 0.00 | 78 | 1015.7 |
| 20260906162343 | 74 | 195 | 4.0 | 7.0 | 0.00 | 0.00 | 0.00 | 80 | 1015.8 |
| 20260906161838 | 74 | 120 | 3.0 | 7.0 | 0.00 | 0.00 | 0.00 | 79 | 1015.7 |
| 20260906161338 | 74 | 168 | 4.0 | 6.0 | 0.00 | 0.00 | 0.00 | 79 | 1015.8 |
| 20260906160836 | 74 | 189 | 4.0 | 6.0 | 0.00 | 0.00 | 0.00 | 80 | 1015.5 |
| 20260906160330 | 74 | 213 | 3.0 | 9.0 | 0.00 | 0.00 | 0.00 | 81 | 1015.5 |
| 20260906155829 | 74 | 157 | 4.0 | 8.0 | 0.00 | 0.00 | 0.00 | 80 | 1015.8 |
| 20260906155317 | 74 | 209 | 3.0 | 11.0 | 0.00 | 0.00 | 0.00 | 81 | 1015.7 |
| 20260906154814 | 74 | 135 | 1.0 | 8.0 | 0.00 | 0.00 | 0.00 | 82 | 1015.7 |
| 20260906154308 | 73 | 224 | 3.0 | 6.0 | 0.00 | 0.00 | 0.00 | 82 | 1015.6 |
| 20260906153806 | 73 | 189 | 2.0 | 11.0 | 0.00 | 0.00 | 0.00 | 83 | 1015.6 |
| 20260906153300 | 74 | 209 | 3.0 | 4.0 | 0.00 | 0.00 | 0.00 | 83 | 1015.5 |
| 20260906152756 | 73 | 200 | 3.0 | 5.0 | 0.00 | 0.00 | 0.00 | 84 | 1015.6 |
| 20260906152251 | 73 | 180 | 3.0 | 5.0 | 0.00 | 0.00 | 0.00 | 84 | 1015.6 |
| 20260906151749 | 73 | 135 | 3.0 | 4.0 | 0.00 | 0.00 | 0.00 | 84 | 1015.9 |
| 20260906151246 | 73 | 204 | 2.0 | 6.0 | 0.00 | 0.00 | 0.00 | 83 | 1015.9 |
| 20260906150741 | 73 | 162 | 3.0 | 5.0 | 0.00 | 0.00 | 0.00 | 83 | 1016.0 |
| 20260906150237 | 73 | 187 | 2.0 | 5.0 | 0.00 | 0.00 | 0.00 | 85 | 1015.8 |
| 20260906145736 | 72 | 208 | 3.0 | 8.0 | 0.00 | 0.00 | 0.00 | 86 | 1016.0 |
| 20260906145234 | 71 | 202 | 3.0 | 8.0 | 0.00 | 0.00 | 0.00 | 86 | 1015.8 |
| 20260906144730 | 71 | 194 | 3.0 | 9.0 | 0.00 | 0.00 | 0.00 | 87 | 1015.8 |
| 20260906144224 | 72 | 202 | 8.0 | 8.0 | 0.00 | 0.00 | 0.00 | 86 | 1015.8 |
| 20260906143724 | 71 | 153 | 7.0 | 8.0 | 0.00 | 0.00 | 0.00 | 87 | 1015.8 |
| 20260906143221 | 71 | 135 | 5.0 | 11.0 | 0.00 | 0.00 | 0.00 | 88 | 1015.6 |
| 20260906142720 | 71 | 151 | 3.0 | 6.0 | 0.00 | 0.00 | 0.00 | 89 | 1015.6 |
| 20260906142216 | 70 | 219 | 4.0 | 5.0 | 0.00 | 0.00 | 0.00 | 90 | 1015.6 |
| 20260906141715 | 70 | 207 | 4.0 | 5.0 | 0.00 | 0.00 | 0.00 | 92 | 1015.4 |
| 20260906141209 | 70 | 198 | 2.0 | 8.0 | 0.00 | 0.00 | 0.00 | 93 | 1015.4 |
| 20260906140709 | 70 | 158 | 3.0 | 5.0 | 0.00 | 0.00 | 0.00 | 94 | 1015.4 |
| 20260906140204 | 70 | 206 | 4.0 | 6.0 | 0.00 | 0.00 | 0.00 | 94 | 1015.2 |
| 20260906135701 | 69 | 97 | 0.0 | 6.0 | 0.00 | 0.00 | 0.00 | 95 | 1015.2 |
| 20260906135157 | 69 | 189 | 2.0 | 8.0 | 0.00 | 0.00 | 0.00 | 97 | 1015.4 |
| 20260906134652 | 68 | 173 | 2.0 | 9.0 | 0.00 | 0.00 | 0.00 | 99 | 1015.1 |
| 20260906134147 | 68 | 200 | 4.0 | 7.0 | 0.00 | 0.00 | 0.00 | 99 | 1015.4 |
| 20260906133643 | 67 | 156 | 2.0 | 7.0 | 0.00 | 0.00 | 0.00 | 99 | 1015.2 |
| 20260906133138 | 67 | 156 | 2.0 | 7.0 | 0.00 | 0.00 | 0.00 | 99 | 1015.0 |
| 20260906132634 | 67 | 187 | 2.0 | 4.0 | 0.00 | 0.00 | 0.00 | 99 | 1015.1 |
| 20260906132129 | 67 | 235 | 0.0 | 6.0 | 0.00 | 0.00 | 0.00 | 99 | 1015.4 |
| 20260906131625 | 67 | 249 | 0.0 | 6.0 | 0.00 | 0.00 | 0.00 | 99 | 1015.5 |
| 20260906131119 | 66 | 142 | 1.0 | 4.0 | 0.00 | 0.00 | 0.00 | 99 | 1015.3 |
| 20260906130614 | 66 | 160 | 1.0 | 3.0 | 0.00 | 0.00 | 0.00 | 99 | 1015.5 |
| 20260906130109 | 66 | 178 | 2.0 | 4.0 | 0.00 | 0.00 | 0.00 | 99 | 1015.5 |
| 20260906125606 | 66 | 237 | 3.0 | 4.0 | 0.00 | 0.00 | 0.00 | 99 | 1015.2 |
| 20260906125100 | 66 | 180 | 1.0 | 4.0 | 0.00 | 0.00 | 0.00 | 99 | 1015.2 |
| 20260906124556 | 66 | 205 | 4.0 | 5.0 | 0.00 | 0.00 | 0.00 | 99 | 1015.1 |
| 20260906124051 | 66 | 206 | 4.0 | 7.0 | 0.00 | 0.00 | 0.00 | 99 | 1015.2 |
| 20260906123549 | 66 | 204 | 2.0 | 4.0 | 0.00 | 0.00 | 0.00 | 99 | 1015.2 |
| 20260906123045 | 66 | 216 | 0.0 | 4.0 | 0.00 | 0.00 | 0.00 | 99 | 1015.5 |
| 20260906122538 | 66 | 161 | 1.0 | 5.0 | 0.00 | 0.00 | 0.00 | 99 | 1015.0 |
| 20260906122035 | 66 | 133 | 3.0 | 5.0 | 0.00 | 0.00 | 0.00 | 99 | 1015.2 |
| 20260906121531 | 66 | 156 | 4.0 | 5.0 | 0.00 | 0.00 | 0.00 | 99 | 1015.1 |
| 20260906121027 | 66 | 181 | 2.0 | 6.0 | 0.00 | 0.00 | 0.00 | 99 | 1015.1 |
| 20260906120521 | 66 | 198 | 4.0 | 7.0 | 0.00 | 0.00 | 0.00 | 99 | 1014.9 |
| 20260906120019 | 66 | 178 | 3.0 | 5.0 | 0.00 | 0.00 | 0.00 | 99 | 1014.8 |
| 20260906115513 | 66 | 197 | 3.0 | 7.0 | 0.00 | 0.00 | 0.00 | 99 | 1014.8 |
| 20260906115008 | 66 | 207 | 4.0 | 7.0 | 0.00 | 0.00 | 0.00 | 99 | 1014.7 |
| 20260906114503 | 66 | 191 | 2.0 | 7.0 | 0.00 | 0.00 | 0.00 | 99 | 1014.6 |
| 20260906113959 | 66 | 205 | 4.0 | 5.0 | 0.00 | 0.00 | 0.00 | 99 | 1014.9 |
| 20260906113457 | 66 | 201 | 5.0 | 8.0 | 0.00 | 0.00 | 0.00 | 99 | 1014.8 |
| 20260906112953 | 66 | 144 | 2.0 | 5.0 | 0.00 | 0.00 | 0.00 | 99 | 1014.6 |
| 20260906112448 | 66 | 149 | 5.0 | 6.0 | 0.00 | 0.00 | 0.00 | 99 | 1014.7 |
| 20260906111944 | 66 | 156 | 2.0 | 5.0 | 0.00 | 0.00 | 0.00 | 99 | 1014.3 |
| 20260906111443 | 66 | 156 | 1.0 | 5.0 | 0.00 | 0.00 | 0.00 | 99 | 1014.4 |
| 20260906110938 | 66 | 160 | 3.0 | 5.0 | 0.00 | 0.00 | 0.00 | 99 | 1014.3 |
| 20260906110433 | 66 | 216 | 3.0 | 4.0 | 0.00 | 0.00 | 0.00 | 99 | 1014.6 |
| 20260906105932 | 66 | 167 | 1.0 | 5.0 | 0.00 | 0.00 | 0.00 | 99 | 1014.3 |
| 20260906105427 | 66 | 179 | 1.0 | 5.0 | 0.00 | 0.00 | 0.00 | 99 | 1014.1 |
| 20260906104923 | 66 | 183 | 2.0 | 5.0 | 0.00 | 0.00 | 0.00 | 99 | 1013.7 |
| 20260906104422 | 66 | 149 | 1.0 | 3.0 | 0.00 | 0.00 | 0.00 | 99 | 1013.8 |
| 20260906103916 | 66 | 152 | 1.0 | 4.0 | 0.00 | 0.00 | 0.00 | 99 | 1014.0 |
| 20260906103414 | 66 | 133 | 1.0 | 4.0 | 0.00 | 0.00 | 0.00 | 99 | 1013.7 |
| 20260906102910 | 66 | 118 | 1.0 | 4.0 | 0.00 | 0.00 | 0.00 | 99 | 1014.1 |
| 20260906102409 | 66 | 181 | 3.0 | 6.0 | 0.00 | 0.00 | 0.00 | 99 | 1013.9 |
| 20260906101904 | 66 | 136 | 0.0 | 4.0 | 0.00 | 0.00 | 0.00 | 99 | 1014.1 |
| 20260906101359 | 66 | 180 | 2.0 | 4.0 | 0.00 | 0.00 | 0.00 | 99 | 1013.8 |
| 20260906100855 | 66 | 168 | 3.0 | 5.0 | 0.00 | 0.00 | 0.00 | 99 | 1013.8 |
| 20260906100354 | 66 | 114 | 4.0 | 6.0 | 0.00 | 0.00 | 0.00 | 99 | 1013.5 |
| 20260906095849 | 66 | 160 | 2.0 | 4.0 | 0.00 | 0.00 | 0.00 | 99 | 1013.6 |
| 20260906095344 | 66 | 118 | 3.0 | 5.0 | 0.00 | 0.00 | 0.00 | 99 | 1013.9 |
| 20260906094843 | 66 | 130 | 4.0 | 5.0 | 0.00 | 0.00 | 0.00 | 99 | 1013.7 |
| 20260906094339 | 66 | 174 | 1.0 | 3.0 | 0.00 | 0.00 | 0.00 | 99 | 1013.7 |
| 20260906093835 | 66 | 176 | 1.0 | 9.0 | 0.00 | 0.00 | 0.00 | 99 | 1013.6 |
| 20260906093331 | 66 | 142 | 4.0 | 5.0 | 0.00 | 0.00 | 0.00 | 99 | 1013.6 |
| 20260906092825 | 66 | 123 | 2.0 | 6.0 | 0.00 | 0.00 | 0.00 | 99 | 1013.5 |
| 20260906092319 | 66 | 142 | 2.0 | 4.0 | 0.00 | 0.00 | 0.00 | 99 | 1013.6 |
| 20260906091815 | 66 | 159 | 3.0 | 7.0 | 0.00 | 0.00 | 0.00 | 99 | 1013.4 |
| 20260906091312 | 66 | 152 | 2.0 | 6.0 | 0.00 | 0.00 | 0.00 | 99 | 1013.2 |
| 20260906090807 | 66 | 162 | 3.0 | 6.0 | 0.00 | 0.00 | 0.00 | 99 | 1013.3 |
| 20260906090306 | 66 | 166 | 4.0 | 7.0 | 0.00 | 0.00 | 0.00 | 99 | 1013.2 |
| 20260906085806 | 66 | 121 | 2.0 | 5.0 | 0.00 | 0.00 | 0.00 | 99 | 1013.3 |
| 20260906085306 | 66 | 142 | 2.0 | 5.0 | 0.00 | 0.00 | 0.00 | 99 | 1013.5 |
| 20260906084800 | 66 | 180 | 0.0 | 3.0 | 0.00 | 0.00 | 0.00 | 99 | 1013.4 |
| 20260906084300 | 66 | 181 | 2.0 | 3.0 | 0.00 | 0.00 | 0.00 | 99 | 1013.4 |
| 20260906083749 | 66 | 123 | 0.0 | 4.0 | 0.00 | 0.00 | 0.00 | 99 | 1013.6 |
| 20260906083245 | 66 | 102 | 1.0 | 3.0 | 0.00 | 0.00 | 0.00 | 99 | 1013.4 |
| 20260906082739 | 66 | 170 | 3.0 | 4.0 | 0.00 | 0.00 | 0.00 | 99 | 1013.7 |
| 20260906082234 | 66 | 131 | 0.0 | 3.0 | 0.00 | 0.00 | 0.00 | 99 | 1013.6 |
| 20260906081730 | 66 | 143 | 1.0 | 2.0 | 0.00 | 0.00 | 0.00 | 99 | 1013.6 |
| 20260906081225 | 66 | 233 | 0.0 | 3.0 | 0.00 | 0.00 | 0.00 | 99 | 1013.6 |
| 20260906080721 | 66 | 128 | 1.0 | 2.0 | 0.00 | 0.00 | 0.00 | 99 | 1013.6 |
| 20260906080218 | 66 | 188 | 0.0 | 3.0 | 0.00 | 0.00 | 0.00 | 99 | 1013.5 |
| 20260906075712 | 67 | 214 | 0.0 | 3.0 | 0.00 | 0.00 | 0.00 | 99 | 1013.6 |
| 20260906075207 | 67 | 179 | 1.0 | 2.0 | 0.00 | 0.00 | 0.00 | 99 | 1013.7 |
| 20260906074702 | 67 | 192 | 0.0 | 3.0 | 0.00 | 0.00 | 0.00 | 99 | 1013.6 |
| 20260906074201 | 67 | 196 | 0.0 | 2.0 | 0.00 | 0.00 | 0.00 | 99 | 1013.6 |
| 20260906073656 | 67 | 134 | 0.0 | 3.0 | 0.00 | 0.00 | 0.00 | 99 | 1013.6 |
| 20260906073151 | 67 | 184 | 1.0 | 3.0 | 0.00 | 0.00 | 0.00 | 99 | 1013.6 |
| 20260906072646 | 67 | 194 | 2.0 | 3.0 | 0.00 | 0.00 | 0.00 | 99 | 1013.4 |
| 20260906072136 | 68 | 183 | 2.0 | 3.0 | 0.00 | 0.00 | 0.00 | 99 | 1013.5 |
| 20260906071633 | 68 | 161 | 2.0 | 4.0 | 0.00 | 0.00 | 0.00 | 99 | 1013.5 |
| 20260906071132 | 68 | 185 | 1.0 | 3.0 | 0.00 | 0.00 | 0.00 | 99 | 1013.5 |
| 20260906070629 | 68 | 123 | 3.0 | 4.0 | 0.00 | 0.00 | 0.00 | 99 | 1013.7 |
| 20260906070124 | 68 | 137 | 2.0 | 4.0 | 0.00 | 0.00 | 0.00 | 99 | 1013.7 |
| 20260906065624 | 68 | 208 | 2.0 | 3.0 | 0.00 | 0.00 | 0.00 | 99 | 1013.5 |
| 20260906065119 | 68 | 162 | 2.0 | 5.0 | 0.00 | 0.00 | 0.00 | 99 | 1013.7 |
| 20260906064615 | 68 | 157 | 0.0 | 5.0 | 0.00 | 0.00 | 0.00 | 99 | 1013.5 |
| 20260906064109 | 68 | 274 | 0.0 | 4.0 | 0.00 | 0.00 | 0.00 | 99 | 1013.7 |
| 20260906063605 | 68 | 177 | 2.0 | 5.0 | 0.00 | 0.00 | 0.00 | 99 | 1013.8 |
| 20260906063101 | 68 | 116 | 2.0 | 4.0 | 0.00 | 0.00 | 0.00 | 99 | 1014.1 |
| 20260906062557 | 68 | 124 | 2.0 | 5.0 | 0.00 | 0.00 | 0.00 | 99 | 1013.9 |
| 20260906062055 | 68 | 137 | 0.0 | 3.0 | 0.00 | 0.00 | 0.00 | 99 | 1013.8 |
| 20260906061552 | 68 | 117 | 2.0 | 3.0 | 0.00 | 0.00 | 0.00 | 99 | 1013.7 |
| 20260906061051 | 68 | 156 | 1.0 | 4.0 | 0.00 | 0.00 | 0.00 | 99 | 1013.8 |
| 20260906060548 | 68 | 174 | 2.0 | 3.0 | 0.00 | 0.00 | 0.00 | 99 | 1014.1 |
| 20260906060045 | 68 | 122 | 3.0 | 3.0 | 0.00 | 0.00 | 0.00 | 99 | 1013.9 |
| 20260906055541 | 68 | 144 | 2.0 | 3.0 | 0.00 | 0.00 | 0.00 | 99 | 1013.7 |
| 20260906055036 | 68 | 150 | 3.0 | 4.0 | 0.00 | 0.00 | 0.00 | 99 | 1013.8 |
| 20260906054536 | 68 | 147 | 0.0 | 3.0 | 0.00 | 0.00 | 0.00 | 99 | 1013.8 |
| 20260906054031 | 68 | 141 | 1.0 | 3.0 | 0.00 | 0.00 | 0.00 | 99 | 1013.9 |
| 20260906053527 | 68 | 97 | 1.0 | 2.0 | 0.00 | 0.00 | 0.00 | 99 | 1014.0 |
| 20260906053022 | 68 | 48 | 0.0 | 2.0 | 0.00 | 0.00 | 0.00 | 99 | 1014.1 |
| 20260906052518 | 68 | 50 | 0.0 | 3.0 | 0.00 | 0.00 | 0.00 | 99 | 1014.1 |
| 20260906052015 | 68 | 19 | 0.0 | 3.0 | 0.00 | 0.00 | 0.00 | 99 | 1013.9 |
| 20260906051510 | 68 | 50 | 0.0 | 2.0 | 0.00 | 0.00 | 0.00 | 99 | 1013.9 |
| 20260906051006 | 68 | 99 | 0.0 | 2.0 | 0.00 | 0.00 | 0.00 | 99 | 1014.1 |
| 20260906050506 | 68 | 151 | 2.0 | 3.0 | 0.00 | 0.00 | 0.00 | 99 | 1014.1 |
| 20260906050000 | 68 | 166 | 0.0 | 2.0 | 0.00 | 0.00 | 0.00 | 99 | 1014.0 |
| 20260906045459 | 68 | 147 | 0.0 | 2.0 | 0.00 | 0.00 | 0.00 | 99 | 1013.9 |
| 20260906044955 | 68 | 135 | 0.0 | 2.0 | 0.00 | 0.00 | 0.00 | 99 | 1014.1 |
| 20260906044449 | 68 | 32 | 1.0 | 2.0 | 0.00 | 0.00 | 0.00 | 99 | 1014.2 |
| 20260906043940 | 68 | 326 | 0.0 | 2.0 | 0.00 | 0.00 | 0.00 | 98 | 1014.1 |
| 20260906043435 | 68 | 34 | 0.0 | 2.0 | 0.00 | 0.00 | 0.00 | 98 | 1014.1 |
| 20260906042931 | 68 | 20 | 1.0 | 2.0 | 0.00 | 0.00 | 0.00 | 98 | 1013.9 |
| 20260906042430 | 68 | 59 | 1.0 | 2.0 | 0.00 | 0.00 | 0.00 | 98 | 1014.1 |
| 20260906041924 | 68 | 42 | 0.0 | 1.0 | 0.00 | 0.00 | 0.00 | 98 | 1013.9 |
| 20260906041420 | 68 | 129 | 0.0 | 2.0 | 0.00 | 0.00 | 0.00 | 98 | 1013.8 |
| 20260906040915 | 69 | 186 | 0.0 | 2.0 | 0.00 | 0.00 | 0.00 | 98 | 1013.8 |
| 20260906040410 | 69 | 126 | 1.0 | 2.0 | 0.00 | 0.00 | 0.00 | 98 | 1013.8 |
| 20260906035905 | 69 | 142 | 0.0 | 3.0 | 0.00 | 0.00 | 0.00 | 97 | 1014.1 |
| 20260906035401 | 69 | 99 | 0.0 | 2.0 | 0.00 | 0.00 | 0.00 | 97 | 1014.2 |
| 20260906034855 | 69 | 66 | 0.0 | 2.0 | 0.00 | 0.00 | 0.00 | 97 | 1014.2 |
| 20260906034350 | 69 | 89 | 0.0 | 2.0 | 0.00 | 0.00 | 0.00 | 97 | 1014.2 |
| 20260906033846 | 69 | 50 | 2.0 | 3.0 | 0.00 | 0.00 | 0.00 | 97 | 1013.9 |
| 20260906033345 | 69 | 37 | 0.0 | 1.0 | 0.00 | 0.00 | 0.00 | 97 | 1014.0 |
| 20260906032842 | 69 | 44 | 0.0 | 1.0 | 0.00 | 0.00 | 0.00 | 97 | 1013.9 |
| 20260906032337 | 69 | 46 | 0.0 | 1.0 | 0.00 | 0.00 | 0.00 | 97 | 1013.8 |
| 20260906031832 | 69 | 68 | 0.0 | 1.0 | 0.00 | 0.00 | 0.00 | 97 | 1013.7 |
| 20260906031328 | 69 | 230 | 0.0 | 1.0 | 0.00 | 0.00 | 0.00 | 97 | 1013.6 |
| 20260906030827 | 69 | 217 | 0.0 | 1.0 | 0.00 | 0.00 | 0.00 | 97 | 1013.6 |
| 20260906030323 | 69 | 235 | 0.0 | 2.0 | 0.00 | 0.00 | 0.00 | 97 | 1013.8 |
| 20260906025817 | 69 | 315 | 0.0 | 1.0 | 0.00 | 0.00 | 0.00 | 97 | 1013.4 |
| 20260906025311 | 69 | 300 | 0.0 | 1.0 | 0.00 | 0.00 | 0.00 | 97 | 1013.5 |
| 20260906024810 | 69 | 309 | 0.0 | 1.0 | 0.00 | 0.00 | 0.00 | 97 | 1013.5 |
| 20260906024309 | 69 | 170 | 0.0 | 1.0 | 0.00 | 0.00 | 0.00 | 97 | 1013.4 |
| 20260906023805 | 69 | 173 | 0.0 | 1.0 | 0.00 | 0.00 | 0.00 | 97 | 1013.1 |
| 20260906023300 | 69 | 283 | 0.0 | 3.0 | 0.00 | 0.00 | 0.00 | 97 | 1013.4 |
| 20260906022755 | 69 | 34 | 0.0 | 1.0 | 0.00 | 0.00 | 0.00 | 97 | 1013.0 |
| 20260906022251 | 70 | 73 | 0.0 | 2.0 | 0.00 | 0.00 | 0.00 | 97 | 1012.7 |
| 20260906021747 | 70 | 0 | 0.0 | 1.0 | 0.00 | 0.00 | 0.00 | 97 | 1012.9 |
| 20260906021240 | 70 | 140 | 0.0 | 2.0 | 0.00 | 0.00 | 0.00 | 97 | 1012.9 |
| 20260906020735 | 70 | 162 | 0.0 | 2.0 | 0.00 | 0.00 | 0.00 | 97 | 1012.7 |
| 20260906020235 | 70 | 53 | 0.0 | 2.0 | 0.00 | 0.00 | 0.00 | 97 | 1012.6 |
| 20260906015730 | 70 | 230 | 0.0 | 0.0 | 0.00 | 0.00 | 0.00 | 96 | 1012.7 |
| 20260906015228 | 70 | 135 | 0.0 | 2.0 | 0.00 | 0.00 | 0.00 | 96 | 1012.7 |
| 20260906014722 | 70 | 235 | 0.0 | 1.0 | 0.00 | 0.00 | 0.00 | 95 | 1012.5 |
| 20260906014219 | 71 | 315 | 0.0 | 1.0 | 0.00 | 0.00 | 0.00 | 95 | 1012.4 |
| 20260906013715 | 71 | 230 | 0.0 | 1.0 | 0.00 | 0.00 | 0.00 | 95 | 1012.0 |
| 20260906013214 | 71 | 147 | 0.0 | 2.0 | 0.00 | 0.00 | 0.00 | 94 | 1012.3 |
| 20260906012710 | 72 | 31 | 0.0 | 2.0 | 0.00 | 0.00 | 0.00 | 93 | 1012.3 |
| 20260906012204 | 72 | 130 | 0.0 | 2.0 | 0.00 | 0.00 | 0.00 | 93 | 1012.1 |
| 20260906011659 | 72 | 58 | 0.0 | 2.0 | 0.00 | 0.00 | 0.00 | 93 | 1012.1 |
| 20260906011154 | 73 | 157 | 0.0 | 2.0 | 0.00 | 0.00 | 0.00 | 92 | 1012.1 |
| 20260906010650 | 73 | 65 | 0.0 | 2.0 | 0.00 | 0.00 | 0.00 | 92 | 1012.0 |
| 20260906010146 | 73 | 89 | 0.0 | 3.0 | 0.00 | 0.00 | 0.00 | 92 | 1011.7 |
| 20260906005645 | 73 | 199 | 2.0 | 3.0 | 0.00 | 0.00 | 0.00 | 91 | 1011.8 |
| 20260906005144 | 73 | 196 | 1.0 | 3.0 | 0.00 | 0.00 | 0.00 | 91 | 1011.9 |
| 20260906004643 | 74 | 202 | 2.0 | 2.0 | 0.00 | 0.00 | 0.00 | 91 | 1012.0 |
| 20260906004139 | 74 | 224 | 1.0 | 3.0 | 0.00 | 0.00 | 0.00 | 90 | 1011.8 |
| 20260906003634 | 74 | 212 | 2.0 | 3.0 | 0.00 | 0.00 | 0.00 | 90 | 1011.7 |
| 20260906003130 | 75 | 156 | 2.0 | 3.0 | 0.00 | 0.00 | 0.00 | 90 | 1011.7 |
| 20260906002625 | 75 | 203 | 2.0 | 4.0 | 0.00 | 0.00 | 0.00 | 90 | 1011.6 |
| 20260906002119 | 75 | 209 | 2.0 | 3.0 | 0.00 | 0.00 | 0.00 | 89 | 1011.6 |
| 20260906001614 | 75 | 172 | 1.0 | 3.0 | 0.00 | 0.00 | 0.00 | 89 | 1011.7 |
| 20260906001109 | 76 | 75 | 2.0 | 3.0 | 0.00 | 0.00 | 0.00 | 89 | 1011.8 |
| 20260906000605 | 76 | 241 | 1.0 | 3.0 | 0.00 | 0.00 | 0.00 | 89 | 1011.7 |
| 20260906000100 | 76 | 186 | 0.0 | 5.0 | 0.00 | 0.00 | 0.00 | 88 | 1011.5 |
| 20260905235559 | 76 | 159 | 2.0 | 4.0 | 0.00 | 0.00 | 0.00 | 88 | 1011.7 |
| 20260905235054 | 76 | 10 | 1.0 | 2.0 | 0.00 | 0.00 | 0.00 | 88 | 1011.9 |
| 20260905234550 | 76 | 153 | 0.0 | 2.0 | 0.00 | 0.00 | 0.00 | 88 | 1011.6 |